Tracking 17842 objects as of 29-August-2016
HD Live streaming from Space Station
objects crossing your sky now

SL-3 DEB

Track SL-3 DEB now!
10-day predictions


NORAD ID: 14928
Int'l Code: 1983-075F
Perigee: 538.2 km
Apogee: 538.2 km
Inclination: 97.8 °
Period: 95.3 minutes
Semi major axis: 6909 km
RCS: 0.0341 m2 (small)
Launch date: July 24, 1983
Source: Commonwealth of Independent States (former USSR) (CIS)
Launch site: TYURATAM MISSILE AND SPACE COMPLEX (TTMTR)

Note: This is SATELLITE DEBRIS
Your satellite tracking list
Your tracking list is empty





NASA's NSSDC Master Catalog

Two Line Element Set (TLE):
1 14928U 83075F   16241.36502509  .00000589  00000-0  38312-4 0  9994
2 14928  97.8462  16.1060 0033988 135.5199 277.8454 15.11681266776138
Source of the keplerian elements: AFSPC

N2YO: 759